Time,TemperatureF,DewpointF,PressureIn,WindDirection,WindDirectionDegrees,WindSpeedMPH,WindSpeedGustMPH,Humidity,HourlyPrecipIn,Conditions,Clouds,dailyrainin,SoftwareType,DateUTC
2013-01-06 14:20:00,40.0,-99.9,-100.00,NNE,21,2.0,4.0,-999,-99.99,,,-99.99,,2013-01-06 21:20:00,
2013-01-06 14:22:00,40.0,-99.9,-100.00,NE,49,3.0,4.0,-999,-99.99,,,-99.99,,2013-01-06 21:22:00,
2013-01-06 14:33:00,40.0,-99.9,-100.00,NE,49,3.0,4.0,-999,-99.99,,,-99.99,,2013-01-06 21:33:00,
2013-01-06 15:02:00,40.0,-99.9,-100.00,NNE,21,2.0,4.0,-999,-99.99,,,-99.99,,2013-01-06 22:02:00,
2013-01-06 15:10:00,41.0,-99.9,-100.00,NW,314,1.0,1.0,-999,-99.99,,,-99.99,,2013-01-06 22:10:00,
2013-01-06 15:12:00,40.0,-99.9,-100.00,NNE,21,2.0,4.0,-999,-99.99,,,-99.99,,2013-01-06 22:12:00,
2013-01-06 15:53:00,41.0,-99.9,-100.00,NW,314,1.0,1.0,-999,-99.99,,,-99.99,,2013-01-06 22:53:00,
2013-01-06 16:00:00,40.0,-99.9,-100.00,NW,317,1.0,1.0,-999,-99.99,,,-99.99,,2013-01-06 23:00:00,
2013-01-06 16:02:00,41.0,-99.9,-100.00,NW,314,1.0,1.0,-999,-99.99,,,-99.99,,2013-01-06 23:02:00,
2013-01-06 16:33:00,40.0,-99.9,-100.00,West,275,0.0,2.0,-999,-99.99,,,-99.99,,2013-01-06 23:33:00,
2013-01-06 16:43:00,40.0,-99.9,-100.00,West,275,0.0,2.0,-999,-99.99,,,-99.99,,2013-01-06 23:43:00,
2013-01-06 16:53:00,40.0,-99.9,-100.00,NW,317,1.0,1.0,-999,-99.99,,,-99.99,,2013-01-06 23:53:00,
2013-01-06 18:50:00,35.0,-99.9,-100.00,NNW,332,1.0,1.0,-999,-99.99,,,-99.99,,2013-01-07 01:50:00,
2013-01-06 19:02:00,36.0,-99.9,-100.00,North,351,0.0,0.0,-999,-99.99,,,-99.99,,2013-01-07 02:02:00,
2013-01-06 19:12:00,36.0,-99.9,-100.00,North,351,0.0,0.0,-999,-99.99,,,-99.99,,2013-01-07 02:12:00,
2013-01-06 19:23:00,36.0,-99.9,-100.00,North,351,0.0,0.0,-999,-99.99,,,-99.99,,2013-01-07 02:23:00,
2013-01-06 19:33:00,35.0,-99.9,-100.00,NNW,332,1.0,1.0,-999,-99.99,,,-99.99,,2013-01-07 02:33:00,
2013-01-06 19:43:00,35.0,-99.9,-100.00,NNW,332,1.0,1.0,-999,-99.99,,,-99.99,,2013-01-07 02:43:00,
2013-01-06 20:33:00,35.0,-99.9,-100.00,ESE,109,3.0,3.0,-999,-99.99,,,-99.99,,2013-01-07 03:33:00,
2013-01-06 20:43:00,35.0,-99.9,-100.00,ESE,109,3.0,3.0,-999,-99.99,,,-99.99,,2013-01-07 03:43:00,
2013-01-06 20:50:00,36.0,-99.9,-100.00,East,92,2.0,4.0,-999,-99.99,,,-99.99,,2013-01-07 03:50:00,
2013-01-06 20:53:00,35.0,-99.9,-100.00,ESE,109,3.0,3.0,-999,-99.99,,,-99.99,,2013-01-07 03:53:00,
2013-01-06 21:33:00,36.0,-99.9,-100.00,East,92,2.0,4.0,-999,-99.99,,,-99.99,,2013-01-07 04:33:00,
2013-01-06 21:43:00,36.0,-99.9,-100.00,East,92,2.0,4.0,-999,-99.99,,,-99.99,,2013-01-07 04:43:00,
2013-01-06 22:23:00,36.0,-99.9,-100.00,ENE,75,3.0,4.0,-999,-99.99,,,-99.99,,2013-01-07 05:23:00,
2013-01-06 22:33:00,36.0,-99.9,-100.00,ENE,75,3.0,4.0,-999,-99.99,,,-99.99,,2013-01-07 05:33:00,
2013-01-06 23:00:00,36.0,-99.9,-100.00,East,90,2.0,3.0,-999,-99.99,,,-99.99,,2013-01-07 06:00:00,
2013-01-06 23:33:00,36.0,-99.9,-100.00,East,90,2.0,3.0,-999,-99.99,,,-99.99,,2013-01-07 06:33:00,
2013-01-06 23:43:00,36.0,-99.9,-100.00,East,90,2.0,3.0,-999,-99.99,,,-99.99,,2013-01-07 06:43:00,
2013-01-06 23:53:00,36.0,-99.9,-100.00,East,90,2.0,3.0,-999,-99.99,,,-99.99,,2013-01-07 06:53:00,